User: anonymous
Location: Brno
(49.2000°N, 16.6330°E)
Time: 22:13:56
(UTC+02:00)
Language:

BREEZE M DEB (TANK) - Orbit

View from above orbital plane
View from above orbital plane
View from above satellite
View from above satellite

Ground track
Ground track

The orbit data is extracted from the following two-line orbital elements,

1 28359U 04022B   14240.83527737  .00002588  00000-0  39272-3 0  2417
2 28359 049.5280 341.9095 4710319 083.3977 017.6535 06.11571208222150
Epoch (UTC): 28 August 2014 20:02:47
Eccentricity: 0.4710319
inclination: 49.5280°
perigee height: 303 km
apogee height: 12202 km
right ascension of ascending node: 341.9095°
argument of perigee: 83.3977°
revolutions per day: 6.11571208
mean anomaly at epoch: 17.6535°
orbit number at epoch: 22215

The dashed part of the orbit path shows where the satellite is in the earth's shadow,  

DLR